Theta_e
311 311 310 307 306 308 307 306 306 306 305 305 305 305 304 304 303 302 303 309 310 312 311 314 314 313 314 316 318 320 324 326 326 328 329 329 332 331 330 330 329 329 329 329 328
312 311 311 310 308 307 309 308 308 307 305 305 306 306 305 304 303 304 308 311 311 311 310 313 317 316 316 316 318 321 322 323 325 326 327 327 327 328 329 330 329 328 327 327 326
313 312 312 311 310 310 307 310 309 310 308 307 304 305 305 303 313 317 316 311 311 310 310 316 316 316 316 317 319 320 321 321 322 322 322 323 324 324 325 327 328 326 326 326 326
312 312 312 311 310 310 311 307 311 310 311 308 305 303 304 303 326 324 316 313 308 307 309 316 318 317 318 318 319 320 321 320 320 322 323 323 323 322 323 323 323 323 323 323 323
308 309 309 310 309 308 309 311 309 311 312 313 308 303 303 318 321 320 311 310 307 307 314 319 318 318 318 319 319 320 321 321 321 321 321 322 321 322 322 322 322 321 321 321 321
306 306 306 306 306 306 307 311 310 312 313 313 312 303 305 319 317 316 312 310 311 313 317 318 318 318 319 320 321 320 320 321 321 321 321 321 320 319 320 320 320 320 321 321 321
302 303 303 304 306 307 307 309 311 308 312 312 313 305 313 316 314 318 317 314 314 316 316 317 317 317 318 319 320 320 321 320 320 320 320 320 320 320 320 320 320 320 321 321 321
301 303 305 308 309 311 312 309 311 309 311 314 314 309 317 315 315 321 320 320 319 318 316 316 316 317 317 319 320 319 320 319 321 320 320 320 319 321 321 320 320 320 320 320 321
305 308 309 310 311 312 313 310 310 310 312 314 314 317 320 314 312 316 321 317 315 316 318 319 319 319 318 319 320 320 319 320 320 322 321 320 320 321 321 321 321 320 320 321 320
309 310 310 311 311 312 312 310 310 314 316 315 316 320 320 319 314 313 320 317 315 318 319 319 318 320 320 320 320 321 320 320 320 322 321 321 320 320 321 320 321 321 321 320 320
311 311 311 311 311 311 312 316 322 322 319 321 322 319 319 317 314 313 320 318 316 317 319 319 319 319 320 321 321 320 321 320 322 322 321 321 321 321 321 321 321 321 321 322 321
313 312 311 313 313 312 312 316 319 319 319 319 319 321 320 319 315 316 317 318 317 318 319 320 320 320 320 320 320 320 320 320 321 322 321 321 321 322 322 322 322 322 322 322 322
313 312 311 314 312 313 313 317 317 317 320 322 320 320 319 318 319 317 318 317 319 319 320 321 321 322 320 320 320 320 321 321 320 321 322 322 322 322 322 322 322 322 322 322 322
312 311 312 312 317 319 319 317 316 318 322 324 320 319 319 318 318 319 318 318 318 320 321 321 321 321 321 320 320 321 321 321 320 320 320 321 322 324 323 324 325 324 322 322 322
311 311 313 315 317 319 318 317 317 319 333 324 322 319 319 318 319 319 318 317 319 321 320 320 321 321 320 320 320 319 320 320 320 321 321 321 322 322 324 325 325 326 324 323 323
311 311 312 318 319 316 317 317 318 326 332 324 322 321 320 319 319 320 319 318 317 319 319 320 319 320 320 320 320 320 319 320 320 321 323 322 323 323 325 326 327 326 324 324 322
311 313 312 316 320 317 315 317 325 328 324 324 323 322 321 321 321 320 320 319 319 318 318 318 319 320 320 320 320 320 320 321 322 323 324 323 324 326 329 327 326 325 324 323 321
312 316 316 316 317 316 318 322 329 326 324 323 322 322 322 322 321 321 321 321 320 318 319 322 323 320 319 319 320 320 321 323 326 327 326 326 326 326 327 326 325 323 323 322 320
312 320 320 318 317 318 322 328 327 324 323 322 322 323 323 324 322 322 321 321 321 321 321 322 322 321 322 322 322 321 321 322 324 325 328 326 325 326 326 326 326 324 322 319 319
313 319 321 317 318 320 324 325 324 322 322 322 323 323 324 324 324 323 322 323 322 321 321 320 323 322 322 322 323 321 321 322 323 332 329 325 325 326 326 325 323 323 321 319 318
317 322 321 317 318 320 325 325 324 321 320 322 323 322 322 322 323 323 324 322 321 320 320 321 323 323 321 323 324 324 322 322 323 325 329 329 325 326 324 323 323 323 321 319 317
317 324 320 320 321 323 325 324 320 321 320 321 320 321 321 321 321 322 322 321 320 318 320 319 322 323 321 320 321 322 324 323 328 328 328 329 329 325 326 323 323 320 318 318 317
316 318 320 319 324 325 325 323 320 320 321 320 320 320 320 320 321 321 320 319 319 319 320 321 322 324 322 322 321 322 322 322 322 324 323 325 324 322 323 322 321 321 321 320 318
316 320 320 319 319 321 323 321 321 320 318 318 319 319 319 320 319 320 319 319 318 318 314 315 320 322 323 323 323 323 323 322 322 324 324 323 322 321 321 322 322 320 318 317 317
317 319 319 320 321 320 319 319 319 319 318 317 319 318 317 318 318 318 317 317 317 316 317 318 319 318 318 318 318 319 319 319 321 321 322 320 320 320 321 321 319 316 318 318 318
314 315 315 315 317 317 316 318 318 318 317 318 317 317 316 316 316 316 316 316 316 316 318 317 320 318 318 317 317 318 318 318 319 318 318 318 318 318 316 317 318 318 317 316 316
313 313 313 314 316 316 317 318 317 315 315 315 315 314 315 314 313 313 313 313 315 316 316 316 317 318 319 317 319 321 319 318 318 318 317 317 318 318 319 318 316 316 315 315 314
Wind_Speed
24 26 25 22 19 19 16 14 12 13 12 11 11 10 11 13 14 15 22 15 16 13 12 11 14 18 17 18 20 19 13 16 22 21 18 21 10 12 10 14 5 3 8 4 4
23 24 26 26 22 19 18 15 14 12 12 10 10 9 10 12 16 24 22 15 19 19 14 14 18 19 23 20 22 17 11 23 18 13 13 24 18 13 9 18 13 16 14 13 9
20 23 25 26 26 23 18 16 15 13 12 11 10 9 9 11 15 12 11 18 20 22 20 14 15 19 23 21 25 21 17 16 20 22 22 19 11 15 15 16 12 11 17 15 11
20 21 24 25 25 25 23 16 14 13 11 10 9 8 8 8 4 2 1 12 16 18 19 16 20 22 18 21 26 20 24 23 23 23 9 8 12 17 21 17 16 17 18 11 11
22 22 23 24 25 25 24 21 14 12 11 9 7 7 7 8 14 4 3 11 15 19 18 17 19 21 19 19 23 21 18 23 21 24 15 12 14 16 21 19 17 18 15 15 17
23 24 24 24 24 24 24 24 16 12 10 10 8 6 5 12 3 2 4 8 14 17 14 17 16 18 19 19 18 18 23 18 21 16 18 16 18 20 21 19 20 18 16 18 17
23 24 24 24 24 23 24 25 18 12 10 10 8 6 10 18 0 3 6 7 13 12 12 14 15 14 18 12 22 16 14 12 17 21 15 20 18 19 22 22 17 17 17 16 16
24 24 25 26 26 25 24 26 15 10 10 8 6 4 10 5 14 9 8 9 11 11 11 11 13 14 18 14 6 14 15 16 17 18 22 17 16 16 20 31 23 8 14 17 14
25 26 26 26 26 25 23 22 9 8 9 5 3 4 10 8 12 12 12 9 10 10 9 6 9 15 16 14 11 13 14 19 19 19 18 19 18 16 17 5 9 15 20 17 19
23 24 28 27 25 22 19 14 7 6 4 3 8 9 14 10 9 15 14 11 10 9 10 9 10 11 14 12 13 16 19 16 17 13 13 13 15 17 14 17 18 20 19 19 19
26 28 31 36 29 19 14 6 4 1 6 10 6 13 1 1 6 14 15 12 13 11 12 16 11 13 17 18 18 20 20 15 10 14 16 17 14 16 18 18 18 18 19 20 20
29 31 38 34 23 12 9 8 5 5 8 18 18 16 18 3 8 11 15 13 14 14 14 13 14 16 17 16 18 18 18 14 16 16 13 13 15 15 17 19 22 20 20 18 16
30 33 37 28 16 8 9 11 10 9 8 6 14 15 16 11 14 14 17 18 11 15 15 16 16 18 16 16 16 14 14 15 17 16 16 14 17 17 20 24 26 26 20 17 15
29 30 33 22 4 3 7 3 5 5 5 10 9 8 11 10 11 16 19 17 15 15 15 15 17 18 11 13 15 17 16 17 17 15 13 15 15 19 14 17 19 21 17 15 16
26 27 23 16 5 2 2 2 3 3 4 10 10 11 12 13 4 12 16 16 17 15 11 15 17 16 15 19 14 14 14 15 15 14 15 17 12 15 18 19 18 16 24 20 18
27 23 16 7 10 6 8 4 3 5 4 6 8 10 13 16 10 13 9 10 18 12 18 19 22 12 10 12 15 15 16 14 14 13 15 18 18 16 17 18 11 7 22 10 7
24 14 8 1 2 7 5 6 5 5 6 3 9 11 14 9 14 10 15 13 10 5 11 14 18 18 13 12 14 7 8 9 13 14 15 20 18 12 11 11 7 5 9 7 4
17 6 5 4 5 8 4 8 7 8 5 5 4 6 9 11 12 13 11 12 16 16 14 12 14 16 12 15 14 16 14 11 18 14 16 21 15 14 14 13 6 4 8 1 1
14 5 5 3 4 2 10 7 5 8 7 7 11 11 7 5 5 5 10 9 7 13 15 9 16 16 13 16 13 13 14 12 9 12 13 14 22 20 18 11 2 1 4 5 7
15 4 7 3 5 3 6 14 3 6 9 6 8 7 2 3 5 6 3 2 6 9 6 8 11 11 15 18 17 13 10 7 7 5 12 12 15 10 9 13 6 4 3 8 14
11 7 6 5 4 9 8 2 2 9 6 6 9 6 4 8 6 6 3 4 5 5 5 9 8 9 15 12 13 13 12 11 10 12 9 12 10 12 12 6 8 11 16 16 16
7 5 4 5 8 11 10 3 3 5 1 6 4 8 7 7 9 10 10 3 6 8 6 2 4 9 18 18 17 17 17 10 5 7 10 10 15 15 12 13 15 11 16 19 22
8 15 5 6 6 7 4 3 3 4 5 6 2 2 7 5 4 7 6 7 2 5 3 3 1 8 11 15 14 15 16 14 13 13 18 14 13 10 9 15 19 23 29 27 24
8 4 9 9 11 8 11 6 5 7 3 5 6 4 6 8 6 7 2 2 3 6 5 4 10 13 11 12 3 4 12 16 15 9 13 16 22 19 17 19 19 21 27 24 19
6 3 3 5 6 7 8 10 7 5 4 1 4 1 5 2 7 12 10 9 8 6 9 2 10 15 17 20 23 23 20 18 19 21 20 20 24 21 20 19 20 24 15 19 20
8 6 11 15 8 8 6 8 5 4 2 3 3 5 4 5 9 15 15 11 8 8 6 4 4 11 18 21 23 24 23 22 23 22 23 23 23 19 19 17 22 23 22 23 24
10 10 7 9 7 4 3 6 5 3 5 4 5 3 8 9 10 14 14 16 14 10 10 1 4 7 13 17 15 16 22 22 21 19 13 13 15 18 17 17 20 22 25 28 25
Wind_Direction
15 12 9 1 355 352 351 340 331 320 314 310 300 298 294 287 274 259 244 210 225 219 219 207 215 212 218 229 223 232 242 240 241 260 280 289 222 231 257 266 332 276 257 40 73
7 10 11 9 360 350 347 344 339 334 323 316 309 310 303 292 280 261 235 211 225 229 219 210 206 203 209 215 220 227 229 242 252 261 258 274 284 278 220 254 244 254 262 269 266
354 357 1 3 3 356 342 337 335 339 336 331 327 316 299 295 298 264 222 214 221 219 208 212 216 205 215 220 210 215 237 254 243 265 257 276 300 265 281 257 246 269 271 259 255
338 341 345 350 354 353 350 331 328 326 339 339 329 307 295 285 295 12 268 199 214 204 198 232 224 209 218 221 222 217 226 237 259 264 280 274 275 277 277 267 264 266 275 290 287
329 332 334 338 341 344 344 338 317 316 322 337 327 308 298 260 262 309 186 189 191 187 197 221 217 217 219 227 220 231 238 242 234 251 261 269 274 260 258 257 258 254 268 265 257
327 328 331 333 336 338 336 336 314 302 310 320 322 304 292 260 353 291 149 171 180 178 209 214 217 220 232 238 233 233 236 241 260 241 255 235 246 260 258 263 253 248 251 255 250
328 327 328 330 332 333 332 331 317 288 297 310 305 295 269 245 245 174 176 164 173 193 206 216 226 237 239 275 253 252 239 240 241 250 238 251 252 239 247 244 233 230 238 246 257
328 328 326 326 326 328 329 328 313 281 288 297 297 285 264 268 237 211 197 192 203 211 223 223 228 252 238 263 268 246 245 255 250 226 238 233 251 257 267 218 229 241 257 252 255
329 327 327 325 322 324 326 330 305 287 289 269 238 253 266 219 224 210 204 208 195 209 220 216 227 240 224 244 229 232 241 238 248 244 204 213 248 253 241 169 224 219 234 243 244
336 331 328 325 319 318 322 331 298 305 279 233 243 258 252 251 209 201 202 204 194 205 212 219 224 228 238 214 234 231 220 235 255 230 189 231 227 249 234 202 222 228 238 244 250
335 331 327 320 315 305 309 336 295 196 204 220 289 246 27 267 158 197 198 208 206 221 227 208 232 224 228 227 246 265 282 296 282 229 195 208 225 244 250 248 247 224 227 230 233
335 332 328 328 317 279 259 222 303 311 280 259 253 262 276 223 196 209 196 204 214 225 216 246 221 246 243 242 244 245 266 277 284 293 293 273 263 265 263 262 260 259 253 249 249
333 334 332 333 316 265 234 235 270 292 281 254 216 230 241 223 252 203 196 212 219 228 241 233 245 219 236 264 261 255 268 268 264 275 270 254 259 258 254 252 252 254 252 251 258
331 335 336 339 356 354 258 319 252 255 274 149 189 200 202 214 244 241 197 213 239 237 235 250 245 263 215 244 261 262 241 250 259 266 266 264 269 258 265 246 226 227 224 238 238
330 334 338 344 272 8 82 303 267 234 279 190 122 153 167 178 79 230 191 215 241 250 248 262 245 256 260 261 245 263 270 273 268 267 271 263 265 266 260 252 248 229 199 201 222
330 334 338 327 341 281 308 288 267 237 271 158 134 176 166 204 179 179 216 237 240 302 310 290 278 300 292 288 251 253 270 266 262 266 257 255 254 260 260 261 267 342 174 163 126
331 327 327 255 255 312 289 255 241 253 214 104 161 171 186 174 221 182 187 201 228 253 259 281 283 289 257 254 281 226 255 259 252 243 249 245 245 255 327 330 349 227 147 116 106
334 332 347 325 292 285 279 244 253 260 80 70 292 290 235 182 218 191 198 219 202 233 272 275 270 246 255 260 288 260 247 248 275 282 290 309 287 283 309 321 219 219 276 354 272
333 344 319 325 225 190 279 255 301 23 9 2 325 273 215 200 265 225 240 268 242 218 237 277 272 279 270 290 259 265 263 296 326 304 280 267 283 286 284 341 334 211 243 282 251
330 313 236 236 213 230 255 261 314 41 360 308 285 316 283 317 304 286 221 301 303 275 241 273 300 305 305 294 290 272 276 270 261 282 275 267 278 276 357 315 16 303 241 259 260
318 257 170 173 222 241 249 203 301 85 352 332 337 316 304 320 301 299 233 327 312 267 280 273 249 274 293 277 248 261 242 251 255 249 257 278 270 304 359 299 311 294 297 301 300
291 272 147 174 234 237 249 72 356 295 337 262 334 320 316 323 302 285 285 220 309 320 311 292 276 261 270 282 270 242 271 257 254 255 266 270 270 282 301 335 344 303 294 284 274
292 285 193 202 254 280 303 284 175 285 335 328 279 332 318 292 290 283 280 15 18 286 295 322 281 276 273 244 242 257 241 258 270 251 264 270 275 292 207 265 273 280 272 271 279
291 279 188 211 264 297 315 299 254 125 285 319 304 325 315 323 294 281 291 329 345 341 75 337 264 261 270 298 189 269 304 304 287 262 269 260 282 289 294 297 294 297 302 304 309
257 4 7 295 45 337 310 308 288 269 124 209 247 64 41 276 296 267 275 325 308 314 297 326 268 271 279 287 288 283 270 248 253 262 264 277 276 285 290 291 284 289 348 333 320
307 351 345 295 314 296 255 271 288 72 334 127 278 36 347 290 307 310 306 278 271 293 296 152 249 261 275 273 272 272 273 271 266 268 272 278 281 279 295 328 350 343 345 332 321
342 303 284 297 278 271 357 28 40 3 265 6 16 315 297 310 309 287 283 284 271 275 284 258 285 296 271 280 294 264 256 261 264 265 291 303 338 340 347 360 350 328 323 319 330